Location: Hartman Creek State Park
(44.3257°N, 89.2134°W)
Time: 05:15:15
(UTC-05:00)

Terra - Visible Passes

Search period start: 21 April 2014 00:00
Search period end: 01 May 2014 00:00
Orbit: 701 x 703 km, 98.2° (Epoch: 20 April)

Date Brightness Start Highest point End Pass type
(mag) Time Alt. Az. Time Alt. Az. Time Alt. Az.
21 Apr 2.1 22:28:55 51° ENE 22:28:55 51° ENE 22:33:23 10° N visible
22 Apr 4.0 00:07:48 18° WNW 00:07:48 18° WNW 00:10:08 10° NW visible
22 Apr 3.6 21:33:12 16° ENE 21:34:14 17° ENE 21:37:14 10° NNE visible
22 Apr 2.3 23:12:04 57° WNW 23:12:04 57° WNW 23:16:12 10° NNW visible
23 Apr 2.5 22:16:21 39° ENE 22:16:35 39° ENE 22:20:59 10° N visible
23 Apr 3.7 23:55:13 23° WNW 23:55:13 23° WNW 23:58:17 10° NW visible
24 Apr 3.8 21:20:37 12° ENE 21:22:07 13° ENE 21:24:20 10° NNE visible
24 Apr 1.8 22:59:29 77° NW 22:59:29 77° NW 23:03:58 10° NNW visible
25 Apr 2.8 22:03:46 29° E 22:04:23 30° ENE 22:08:32 10° N visible
25 Apr 3.2 23:42:38 30° W 23:42:38 30° W 23:46:18 10° NNW visible
26 Apr 4.1 21:09:26 10° ENE 21:10:02 10° ENE 21:10:37 10° NE visible
26 Apr 1.7 22:46:54 77° ENE 22:46:55 77° ENE 22:51:41 10° N visible
27 Apr 4.3 00:25:47 12° W 00:25:47 12° W 00:27:08 10° WNW visible
27 Apr 3.2 21:51:10 22° E 21:52:13 24° ENE 21:55:59 10° NNE visible
27 Apr 2.7 23:30:03 40° W 23:30:03 40° W 23:34:13 10° NNW visible
28 Apr 1.9 22:34:19 56° E 22:34:40 58° ENE 22:39:20 10° N visible
29 Apr 4.0 00:13:12 16° W 00:13:12 16° W 00:15:45 10° NW visible
29 Apr 3.5 21:38:35 17° E 21:40:03 19° ENE 21:43:21 10° NNE visible
29 Apr 2.2 23:17:28 54° W 23:17:28 54° W 23:22:03 10° NNW visible
30 Apr 2.3 22:21:44 41° E 22:22:26 44° ENE 22:26:57 10° N visible
